Location: Unspecified
(0.0000°N, 0.0000°E)
Time: 19:19:14
(UTC+00:00)

Falcon 9 debris - Pass Details

Date: 26 November 2019
Orbit: 430 x 437 km, 53.0° (Epoch: 05 December)

Event Time Altitude Azimuth Distance (km) Brightness Sun altitude
Rises 19:20:04 0° 193° (SSW) 2,410 ? -21.6°
Reaches altitude 10° 19:22:31 10° 176° (S) 1,539 ? -22.1°
Enters shadow 19:23:25 15° 164° (SSE) 1,279 ? -22.3°
